Location: La Fredeussais
(48.1780°N, 1.3980°W)
Time: 16:44:36
(UTC+00:00)

Cosmos 2366 rocket - Pass Details

Date: 09 May 2021
Orbit: 956 x 996 km, 82.9° (Epoch: 23 June)

Event Time Altitude Azimuth Distance (km) Brightness Sun altitude
Rises 22:39:03 0° 354° (N) 3,651 8.4 -21.6°
Reaches altitude 10° 22:41:39 10° 359° (N) 2,703 7.3 -21.8°
Maximum altitude 22:47:40 51° 75° (ENE) 1,195 4.4 -22.1°
Enters shadow 22:49:42 37° 126° (SE) 1,453 4.5 -22.2°
